Location: Wanzleben
(52.0609°N, 11.4408°E)
Time: 03:42:14
(UTC+00:00)

NOSS 2-2 (C) - Pass Details

Date: 18 September 2020
Orbit: 468 x 1740 km, 63.3° (Epoch: 19 October)

Event Time Altitude Azimuth Distance (km) Brightness Sun altitude
Rises 20:06:18 0° 245° (WSW) 2,511 7.0 -24.3°
Reaches altitude 10° 20:08:21 10° 253° (WSW) 1,670 6.2 -24.5°
Maximum altitude 20:11:50 44° 327° (NNW) 750 4.3 -24.9°
Enters shadow 20:15:46 11° 39° (NE) 1,914 6.1 -25.4°
Exits shadow 20:18:13 - 46° (NE) 2,907 7.0 -25.7°
Sets 20:18:40 0° 47° (NE) 3,089 7.1 -25.7°
